Location: Peebles
(55.6412°N, 3.1714°W)
Time: 22:12:35
(UTC+00:00)

FENGYUN 1C DEB - Pass Details

Date: 08 February 2023
Orbit: 707 x 862 km, 98.5° (Epoch: 07 November)

Event Time Altitude Azimuth Distance (km) Brightness Sun altitude
Rises 20:12:11 0° 187° (S) 3,392 ? -27.0°
Reaches altitude 10° 20:14:41 10° 195° (SSW) 2,469 ? -27.3°
Maximum altitude 20:19:50 39° 264° (W) 1,250 ? -28.0°
Drops below altitude 10° 20:25:00 10° 333° (NNW) 2,480 ? -28.7°
Sets 20:27:32 0° 341° (NNW) 3,409 ? -29.1°
